Time,TemperatureF,DewpointF,PressureIn,WindDirection,WindDirectionDegrees,WindSpeedMPH,WindSpeedGustMPH,Humidity,HourlyPrecipIn,Conditions,Clouds,dailyrainin,SoftwareType,DateUTC
2013-03-27 00:02:00,41.2,37.6,29.92,North,-999,0.0,0.0,87,0.00,,,0.00,ow4j130224,2013-03-27 07:02:00,
2013-03-27 00:07:00,40.9,37.5,29.92,North,-999,0.0,0.0,87,0.00,,,0.00,ow4j130224,2013-03-27 07:07:00,
2013-03-27 00:12:00,40.8,37.1,29.92,North,-999,0.0,0.0,87,0.00,,,0.00,ow4j130224,2013-03-27 07:12:00,
2013-03-27 00:17:00,40.7,36.9,29.92,North,-999,0.0,0.0,86,0.00,,,0.00,ow4j130224,2013-03-27 07:17:00,
2013-03-27 00:22:00,40.3,36.3,29.92,North,-999,0.0,0.0,86,0.00,,,0.00,ow4j130224,2013-03-27 07:22:00,
2013-03-27 00:27:00,40.0,36.0,29.92,North,-999,0.0,0.0,86,0.00,,,0.00,ow4j130224,2013-03-27 07:27:00,
2013-03-27 00:32:00,39.9,35.8,29.92,North,-999,0.0,0.0,85,0.00,,,0.00,ow4j130224,2013-03-27 07:32:00,
2013-03-27 00:37:00,39.8,35.8,29.92,North,-999,0.0,0.0,85,0.00,,,0.00,ow4j130224,2013-03-27 07:37:00,
2013-03-27 00:42:00,39.8,36.0,29.92,North,-999,0.0,0.0,86,0.00,,,0.00,ow4j130224,2013-03-27 07:42:00,
2013-03-27 00:47:00,39.9,36.0,29.92,North,-999,0.0,0.0,86,0.00,,,0.00,ow4j130224,2013-03-27 07:47:00,
2013-03-27 00:52:00,39.6,35.7,29.92,North,-999,0.0,0.0,86,0.00,,,0.00,ow4j130224,2013-03-27 07:52:00,
2013-03-27 00:57:00,39.6,35.8,29.92,North,-999,0.0,0.0,86,0.00,,,0.00,ow4j130224,2013-03-27 07:57:00,
2013-03-27 01:02:00,39.9,36.5,29.92,WSW,256,1.8,2.5,88,0.00,,,0.00,ow4j130224,2013-03-27 08:02:00,
2013-03-27 01:07:00,40.0,36.8,29.93,WSW,238,1.0,1.7,88,0.00,,,0.00,ow4j130224,2013-03-27 08:07:00,
2013-03-27 01:12:00,40.2,36.6,29.92,North,-999,0.0,0.0,87,0.00,,,0.00,ow4j130224,2013-03-27 08:12:00,
2013-03-27 01:17:00,40.3,36.2,29.92,North,-999,0.0,0.0,85,0.00,,,0.00,ow4j130224,2013-03-27 08:17:00,
2013-03-27 01:22:00,39.7,35.6,29.92,North,-999,0.0,0.0,85,0.00,,,0.00,ow4j130224,2013-03-27 08:22:00,
2013-03-27 01:27:00,38.6,34.7,29.92,North,-999,0.0,0.0,86,0.00,,,0.00,ow4j130224,2013-03-27 08:27:00,
2013-03-27 01:32:00,38.2,34.4,29.92,North,-999,0.0,0.0,86,0.00,,,0.00,ow4j130224,2013-03-27 08:32:00,
2013-03-27 01:37:00,38.2,34.6,29.92,North,-999,0.0,0.0,87,0.00,,,0.00,ow4j130224,2013-03-27 08:37:00,
2013-03-27 01:42:00,38.3,34.8,29.93,North,-999,0.0,0.0,87,0.00,,,0.00,ow4j130224,2013-03-27 08:42:00,
2013-03-27 01:47:00,38.2,34.9,29.93,North,-999,0.0,0.0,88,0.00,,,0.00,ow4j130224,2013-03-27 08:47:00,
2013-03-27 01:53:00,38.0,34.8,29.93,North,-999,0.0,0.0,88,0.00,,,0.00,ow4j130224,2013-03-27 08:53:00,
2013-03-27 01:58:00,37.9,34.8,29.93,North,-999,0.0,0.0,88,0.00,,,0.00,ow4j130224,2013-03-27 08:58:00,
2013-03-27 02:03:00,37.8,34.8,29.92,North,-999,0.0,0.0,89,0.00,,,0.00,ow4j130224,2013-03-27 09:03:00,
2013-03-27 02:08:00,37.7,34.7,29.92,North,-999,0.0,0.0,89,0.00,,,0.00,ow4j130224,2013-03-27 09:08:00,
2013-03-27 02:13:00,37.6,34.7,29.92,North,-999,0.0,0.0,89,0.00,,,0.00,ow4j130224,2013-03-27 09:13:00,
2013-03-27 02:18:00,37.5,34.7,29.92,North,-999,0.0,0.0,89,0.00,,,0.00,ow4j130224,2013-03-27 09:18:00,
2013-03-27 02:23:00,37.4,34.5,29.92,North,-999,0.0,0.0,89,0.00,,,0.00,ow4j130224,2013-03-27 09:23:00,
2013-03-27 02:28:00,37.2,34.4,29.92,North,-999,0.0,0.0,89,0.00,,,0.00,ow4j130224,2013-03-27 09:28:00,
2013-03-27 02:33:00,37.2,34.4,29.92,North,-999,0.0,0.0,90,0.00,,,0.00,ow4j130224,2013-03-27 09:33:00,
2013-03-27 02:38:00,37.2,34.6,29.92,North,-999,0.0,0.0,90,0.00,,,0.00,ow4j130224,2013-03-27 09:38:00,
2013-03-27 02:43:00,37.6,35.0,29.92,North,-999,0.0,0.0,90,0.00,,,0.00,ow4j130224,2013-03-27 09:43:00,
2013-03-27 02:48:00,37.9,35.4,29.92,North,-999,0.0,0.0,91,0.00,,,0.00,ow4j130224,2013-03-27 09:48:00,
2013-03-27 02:53:00,37.9,35.4,29.92,North,-999,0.0,0.0,91,0.00,,,0.00,ow4j130224,2013-03-27 09:53:00,
2013-03-27 02:58:00,37.7,35.3,29.92,North,-999,0.0,0.0,91,0.00,,,0.00,ow4j130224,2013-03-27 09:58:00,
2013-03-27 03:03:00,37.6,35.4,29.92,North,-999,0.0,0.0,92,0.00,,,0.00,ow4j130224,2013-03-27 10:03:00,
2013-03-27 03:08:00,38.0,35.9,29.92,North,-999,0.0,0.0,92,0.00,,,0.00,ow4j130224,2013-03-27 10:08:00,
2013-03-27 03:13:00,38.2,36.1,29.92,North,-999,0.0,0.0,92,0.00,,,0.00,ow4j130224,2013-03-27 10:13:00,
2013-03-27 03:18:00,38.2,36.1,29.92,North,-999,0.0,0.0,92,0.00,,,0.00,ow4j130224,2013-03-27 10:18:00,
2013-03-27 03:23:00,38.0,35.8,29.92,North,-999,0.0,0.0,92,0.00,,,0.00,ow4j130224,2013-03-27 10:23:00,
2013-03-27 03:28:00,37.5,35.4,29.92,North,-999,0.0,0.0,92,0.00,,,0.00,ow4j130224,2013-03-27 10:28:00,
2013-03-27 03:33:00,37.3,35.2,29.92,North,-999,0.0,0.0,92,0.00,,,0.00,ow4j130224,2013-03-27 10:33:00,
2013-03-27 03:38:00,37.4,35.4,29.92,North,-999,0.0,0.0,92,0.00,,,0.00,ow4j130224,2013-03-27 10:38:00,
2013-03-27 03:43:00,37.7,35.8,29.92,North,-999,0.0,0.0,93,0.00,,,0.00,ow4j130224,2013-03-27 10:43:00,
2013-03-27 03:48:00,38.0,36.2,29.92,North,-999,0.0,0.0,93,0.00,,,0.00,ow4j130224,2013-03-27 10:48:00,
2013-03-27 03:53:00,38.2,36.4,29.92,North,-999,0.0,0.0,93,0.00,,,0.00,ow4j130224,2013-03-27 10:53:00,
2013-03-27 03:58:00,38.3,36.4,29.92,North,-999,0.0,0.0,93,0.00,,,0.00,ow4j130224,2013-03-27 10:58:00,
2013-03-27 04:03:00,38.1,36.3,29.92,North,-999,0.0,0.0,93,0.00,,,0.00,ow4j130224,2013-03-27 11:03:00,
2013-03-27 04:08:00,38.0,36.2,29.92,North,-999,0.0,0.0,93,0.00,,,0.00,ow4j130224,2013-03-27 11:08:00,
2013-03-27 04:13:00,37.8,36.1,29.92,North,-999,0.0,0.0,93,0.00,,,0.00,ow4j130224,2013-03-27 11:13:00,
2013-03-27 04:18:00,37.8,36.1,29.91,North,-999,0.0,0.0,94,0.00,,,0.00,ow4j130224,2013-03-27 11:18:00,
2013-03-27 04:23:00,37.8,36.2,29.91,North,-999,0.0,0.0,94,0.00,,,0.00,ow4j130224,2013-03-27 11:23:00,
2013-03-27 04:28:00,38.0,36.4,29.91,North,-999,0.0,0.0,94,0.00,,,0.00,ow4j130224,2013-03-27 11:28:00,
2013-03-27 04:33:00,38.3,36.7,29.91,North,-999,0.0,0.0,94,0.00,,,0.00,ow4j130224,2013-03-27 11:33:00,
2013-03-27 04:38:00,38.4,36.8,29.92,North,-999,0.0,0.0,94,0.00,,,0.00,ow4j130224,2013-03-27 11:38:00,
2013-03-27 04:43:00,38.4,36.9,29.92,North,-999,0.0,0.0,94,0.00,,,0.00,ow4j130224,2013-03-27 11:43:00,
2013-03-27 04:48:00,38.2,36.7,29.92,North,-999,0.0,0.0,94,0.00,,,0.00,ow4j130224,2013-03-27 11:48:00,
2013-03-27 04:53:00,37.8,36.3,29.92,North,-999,0.0,0.0,94,0.00,,,0.00,ow4j130224,2013-03-27 11:53:00,
2013-03-27 04:58:00,37.1,35.5,29.92,North,-999,0.0,0.0,94,0.00,,,0.00,ow4j130224,2013-03-27 11:58:00,
2013-03-27 05:03:00,36.6,35.0,29.92,North,-999,0.0,0.0,94,0.00,,,0.00,ow4j130224,2013-03-27 12:03:00,
2013-03-27 05:08:00,36.4,34.9,29.92,North,-999,0.0,0.0,94,0.00,,,0.00,ow4j130224,2013-03-27 12:08:00,
2013-03-27 05:13:00,36.2,34.6,29.92,North,-999,0.0,0.0,94,0.00,,,0.00,ow4j130224,2013-03-27 12:13:00,
2013-03-27 05:18:00,35.9,34.4,29.92,North,-999,0.0,0.0,94,0.00,,,0.00,ow4j130224,2013-03-27 12:18:00,
2013-03-27 05:23:00,35.5,34.0,29.92,North,-999,0.0,0.0,94,0.00,,,0.00,ow4j130224,2013-03-27 12:23:00,
2013-03-27 05:28:00,35.3,33.9,29.92,North,-999,0.0,0.0,94,0.00,,,0.00,ow4j130224,2013-03-27 12:28:00,
2013-03-27 05:33:00,35.8,34.5,29.92,North,-999,0.0,0.0,95,0.00,,,0.00,ow4j130224,2013-03-27 12:33:00,
2013-03-27 05:38:00,36.2,34.9,29.92,North,-999,0.0,0.0,95,0.00,,,0.00,ow4j130224,2013-03-27 12:38:00,
2013-03-27 05:43:00,36.4,35.0,29.92,North,-999,0.0,0.0,95,0.00,,,0.00,ow4j130224,2013-03-27 12:43:00,
2013-03-27 05:48:00,36.5,35.2,29.92,North,-999,0.0,0.0,95,0.00,,,0.00,ow4j130224,2013-03-27 12:48:00,
2013-03-27 05:53:00,36.5,35.3,29.92,North,-999,0.0,0.0,95,0.00,,,0.00,ow4j130224,2013-03-27 12:53:00,
2013-03-27 05:58:00,36.6,35.3,29.92,North,-999,0.0,0.0,95,0.00,,,0.00,ow4j130224,2013-03-27 12:58:00,
2013-03-27 06:03:00,36.6,35.4,29.92,North,-999,0.0,0.0,95,0.00,,,0.00,ow4j130224,2013-03-27 13:03:00,
2013-03-27 06:08:00,36.6,35.4,29.92,North,-999,0.0,0.0,95,0.00,,,0.00,ow4j130224,2013-03-27 13:08:00,
2013-03-27 06:13:00,36.7,35.5,29.92,North,-999,0.0,0.0,95,0.00,,,0.00,ow4j130224,2013-03-27 13:13:00,
2013-03-27 06:18:00,37.1,35.9,29.92,North,-999,0.0,0.0,96,0.00,,,0.00,ow4j130224,2013-03-27 13:18:00,
2013-03-27 06:23:00,37.3,36.2,29.92,North,-999,0.0,0.0,96,0.00,,,0.00,ow4j130224,2013-03-27 13:23:00,
2013-03-27 06:28:00,37.5,36.3,29.92,North,-999,0.0,0.0,95,0.00,,,0.00,ow4j130224,2013-03-27 13:28:00,
2013-03-27 06:33:00,37.4,36.1,29.92,North,-999,0.0,0.0,95,0.00,,,0.00,ow4j130224,2013-03-27 13:33:00,
2013-03-27 06:38:00,36.8,35.4,29.92,North,-999,0.0,0.0,95,0.00,,,0.00,ow4j130224,2013-03-27 13:38:00,
2013-03-27 06:43:00,36.3,34.9,29.92,North,-999,0.0,0.0,95,0.00,,,0.00,ow4j130224,2013-03-27 13:43:00,
2013-03-27 06:48:00,36.3,35.1,29.92,North,-999,0.0,0.0,95,0.00,,,0.00,ow4j130224,2013-03-27 13:48:00,
2013-03-27 06:54:00,36.6,35.3,29.92,North,-999,0.0,0.0,95,0.00,,,0.00,ow4j130224,2013-03-27 13:54:00,
2013-03-27 06:59:00,36.7,35.4,29.92,North,-999,0.0,0.0,95,0.00,,,0.00,ow4j130224,2013-03-27 13:59:00,
2013-03-27 07:04:00,36.8,35.5,29.92,North,-999,0.0,0.0,95,0.00,,,0.00,ow4j130224,2013-03-27 14:04:00,
2013-03-27 07:09:00,36.8,35.5,29.92,North,-999,0.0,0.0,95,0.00,,,0.00,ow4j130224,2013-03-27 14:09:00,
2013-03-27 07:14:00,37.0,35.8,29.91,North,-999,0.0,0.0,95,0.00,,,0.00,ow4j130224,2013-03-27 14:14:00,
2013-03-27 07:19:00,37.2,36.0,29.92,North,-999,0.0,0.0,96,0.00,,,0.00,ow4j130224,2013-03-27 14:19:00,
2013-03-27 07:24:00,37.4,36.2,29.92,North,-999,0.0,0.0,96,0.00,,,0.00,ow4j130224,2013-03-27 14:24:00,
2013-03-27 07:29:00,37.5,36.3,29.92,North,-999,0.0,0.0,95,0.00,,,0.00,ow4j130224,2013-03-27 14:29:00,
2013-03-27 07:34:00,37.8,36.6,29.92,North,-999,0.0,0.0,95,0.00,,,0.00,ow4j130224,2013-03-27 14:34:00,
2013-03-27 07:39:00,38.2,36.8,29.92,North,-999,0.0,0.0,95,0.00,,,0.00,ow4j130224,2013-03-27 14:39:00,
2013-03-27 07:44:00,38.5,36.7,29.92,North,-999,0.0,0.0,93,0.00,,,0.00,ow4j130224,2013-03-27 14:44:00,
2013-03-27 07:49:00,38.8,36.4,29.92,North,-999,0.4,1.6,91,0.00,,,0.00,ow4j130224,2013-03-27 14:49:00,
2013-03-27 07:54:00,39.4,36.6,29.92,North,-999,0.1,0.8,90,0.00,,,0.00,ow4j130224,2013-03-27 14:54:00,
2013-03-27 07:59:00,39.0,36.0,29.92,North,-999,0.4,2.5,89,0.00,,,0.00,ow4j130224,2013-03-27 14:59:00,
2013-03-27 08:04:00,38.8,35.5,29.92,North,5,1.7,4.1,88,0.00,,,0.00,ow4j130224,2013-03-27 15:04:00,
2013-03-27 08:09:00,39.4,35.8,29.92,North,-999,0.8,2.5,87,0.00,,,0.00,ow4j130224,2013-03-27 15:09:00,
2013-03-27 08:14:00,39.8,35.8,29.92,North,-999,0.5,2.4,85,0.00,,,0.00,ow4j130224,2013-03-27 15:14:00,
2013-03-27 08:19:00,40.1,35.9,29.92,North,-999,0.7,4.1,85,0.00,,,0.00,ow4j130224,2013-03-27 15:19:00,
2013-03-27 08:24:00,40.4,35.9,29.92,North,-999,0.3,2.5,84,0.00,,,0.00,ow4j130224,2013-03-27 15:24:00,
2013-03-27 08:29:00,40.6,36.0,29.92,North,-999,0.0,0.0,83,0.00,,,0.00,ow4j130224,2013-03-27 15:29:00,
2013-03-27 08:34:00,40.8,36.2,29.92,North,-999,0.0,0.8,84,0.00,,,0.00,ow4j130224,2013-03-27 15:34:00,
2013-03-27 08:39:00,40.8,36.2,29.92,North,-999,0.0,0.0,83,0.00,,,0.00,ow4j130224,2013-03-27 15:39:00,
2013-03-27 08:44:00,40.8,36.1,29.92,North,-999,0.0,0.0,83,0.00,,,0.00,ow4j130224,2013-03-27 15:44:00,
2013-03-27 08:49:00,40.9,36.2,29.92,North,-999,0.4,2.5,83,0.00,,,0.00,ow4j130224,2013-03-27 15:49:00,
2013-03-27 08:54:00,40.9,36.1,29.92,North,-999,0.1,0.8,83,0.00,,,0.00,ow4j130224,2013-03-27 15:54:00,
2013-03-27 08:59:00,41.0,36.1,29.92,North,-999,0.6,2.5,83,0.00,,,0.00,ow4j130224,2013-03-27 15:59:00,
2013-03-27 09:04:00,41.1,36.1,29.92,NNE,12,2.8,5.1,82,0.00,,,0.00,ow4j130224,2013-03-27 16:04:00,
2013-03-27 09:09:00,41.5,36.3,29.91,NNE,16,2.6,4.1,82,0.00,,,0.00,ow4j130224,2013-03-27 16:09:00,
2013-03-27 09:14:00,41.8,36.4,29.91,North,10,2.4,4.9,81,0.00,,,0.00,ow4j130224,2013-03-27 16:14:00,
2013-03-27 09:19:00,42.3,36.5,29.91,NNE,15,2.5,5.7,80,0.00,,,0.00,ow4j130224,2013-03-27 16:19:00,
2013-03-27 09:24:00,42.9,36.6,29.91,NNE,16,3.6,4.9,79,0.00,,,0.00,ow4j130224,2013-03-27 16:24:00,
2013-03-27 09:29:00,43.2,36.8,29.91,NNE,21,3.0,5.7,78,0.00,,,0.00,ow4j130224,2013-03-27 16:29:00,
2013-03-27 09:34:00,43.8,37.0,29.91,NNE,19,4.3,6.6,77,0.00,,,0.00,ow4j130224,2013-03-27 16:34:00,
2013-03-27 09:39:00,44.4,37.3,29.91,NNE,21,2.4,5.7,76,0.00,,,0.00,ow4j130224,2013-03-27 16:39:00,
2013-03-27 09:44:00,45.2,37.6,29.91,NNE,32,3.0,6.5,74,0.00,,,0.00,ow4j130224,2013-03-27 16:44:00,
2013-03-27 09:49:00,45.7,37.6,29.91,NE,47,3.6,14.8,73,0.00,,,0.00,ow4j130224,2013-03-27 16:49:00,
2013-03-27 09:54:00,46.5,38.2,29.91,North,-999,0.2,1.6,73,0.00,,,0.00,ow4j130224,2013-03-27 16:54:00,
2013-03-27 09:59:00,47.5,38.6,29.91,NNE,14,2.2,4.1,71,0.00,,,0.00,ow4j130224,2013-03-27 16:59:00,
2013-03-27 10:04:00,48.1,38.4,29.91,NNE,28,3.4,6.5,69,0.00,,,0.00,ow4j130224,2013-03-27 17:04:00,
2013-03-27 10:09:00,48.3,38.3,29.91,NNE,14,3.0,5.7,68,0.00,,,0.00,ow4j130224,2013-03-27 17:09:00,
2013-03-27 10:14:00,48.6,38.3,29.91,North,4,5.2,8.0,67,0.00,,,0.00,ow4j130224,2013-03-27 17:14:00,
2013-03-27 10:19:00,49.1,38.3,29.91,North,9,1.8,6.5,66,0.00,,,0.00,ow4j130224,2013-03-27 17:19:00,
2013-03-27 10:24:00,49.8,38.7,29.91,NNE,15,2.0,4.9,65,0.00,,,0.00,ow4j130224,2013-03-27 17:24:00,
2013-03-27 10:29:00,50.7,39.4,29.91,North,6,1.2,3.3,65,0.00,,,0.00,ow4j130224,2013-03-27 17:29:00,
2013-03-27 10:34:00,51.5,40.0,29.91,NNE,16,2.0,4.9,65,0.00,,,0.00,ow4j130224,2013-03-27 17:34:00,
2013-03-27 10:39:00,51.9,40.1,29.91,North,5,3.7,6.5,64,0.00,,,0.00,ow4j130224,2013-03-27 17:39:00,
2013-03-27 10:44:00,51.6,39.6,29.91,NNE,14,4.1,8.2,63,0.00,,,0.00,ow4j130224,2013-03-27 17:44:00,
2013-03-27 10:49:00,51.5,39.3,29.91,NNE,22,1.1,4.9,63,0.00,,,0.00,ow4j130224,2013-03-27 17:49:00,
2013-03-27 10:54:00,51.9,39.9,29.91,North,-999,0.9,2.5,63,0.00,,,0.00,ow4j130224,2013-03-27 17:54:00,
2013-03-27 10:59:00,52.2,40.4,29.91,NNE,18,2.8,7.3,64,0.00,,,0.00,ow4j130224,2013-03-27 17:59:00,
2013-03-27 11:04:00,51.9,40.2,29.91,North,355,2.0,5.7,64,0.00,,,0.00,ow4j130224,2013-03-27 18:04:00,
2013-03-27 11:09:00,52.0,40.5,29.91,North,-999,0.0,0.8,65,0.00,,,0.00,ow4j130224,2013-03-27 18:09:00,
2013-03-27 11:14:00,51.8,39.9,29.91,North,4,2.0,4.9,64,0.00,,,0.00,ow4j130224,2013-03-27 18:14:00,
2013-03-27 11:19:00,51.6,39.2,29.91,North,-999,0.0,0.0,62,0.00,,,0.00,ow4j130224,2013-03-27 18:19:00,
2013-03-27 11:24:00,51.2,38.3,29.91,North,-999,0.0,0.0,61,0.00,,,0.00,ow4j130224,2013-03-27 18:24:00,
2013-03-27 11:29:00,51.5,38.0,29.91,North,-999,0.0,0.8,60,0.00,,,0.00,ow4j130224,2013-03-27 18:29:00,
2013-03-27 11:34:00,52.9,38.2,29.91,North,354,1.0,2.5,57,0.00,,,0.00,ow4j130224,2013-03-27 18:34:00,
2013-03-27 11:39:00,53.4,38.0,29.91,NNW,344,2.7,5.7,56,0.00,,,0.00,ow4j130224,2013-03-27 18:39:00,
2013-03-27 11:44:00,53.5,38.0,29.91,North,2,3.4,7.4,56,0.00,,,0.00,ow4j130224,2013-03-27 18:44:00,
2013-03-27 11:49:00,53.4,37.9,29.91,ENE,75,7.0,9.8,56,0.00,,,0.00,ow4j130224,2013-03-27 18:49:00,
2013-03-27 11:55:00,53.6,38.1,29.91,NW,311,1.1,4.1,56,0.00,,,0.00,ow4j130224,2013-03-27 18:55:00,
2013-03-27 12:00:00,54.1,38.5,29.91,North,1,2.4,4.1,55,0.00,,,0.00,ow4j130224,2013-03-27 19:00:00,
2013-03-27 12:05:00,54.8,38.8,29.91,NNE,14,1.2,3.3,55,0.00,,,0.00,ow4j130224,2013-03-27 19:05:00,
2013-03-27 12:10:00,54.8,38.4,29.91,North,-999,0.1,0.8,54,0.00,,,0.00,ow4j130224,2013-03-27 19:10:00,
2013-03-27 12:15:00,54.5,38.1,29.91,ESE,109,4.4,9.8,54,0.00,,,0.00,ow4j130224,2013-03-27 19:15:00,
2013-03-27 12:20:00,55.1,38.1,29.91,ENE,65,2.2,7.4,53,0.00,,,0.00,ow4j130224,2013-03-27 19:20:00,
2013-03-27 12:25:00,57.1,39.6,29.91,East,98,3.3,6.5,52,0.00,,,0.00,ow4j130224,2013-03-27 19:25:00,
2013-03-27 12:30:00,57.8,40.1,29.91,North,-999,1.0,4.1,51,0.00,,,0.00,ow4j130224,2013-03-27 19:30:00,
2013-03-27 12:35:00,57.9,39.9,29.90,North,360,2.1,5.7,51,0.00,,,0.00,ow4j130224,2013-03-27 19:35:00,
2013-03-27 12:40:00,57.9,39.7,29.90,NNW,332,3.1,6.5,51,0.00,,,0.00,ow4j130224,2013-03-27 19:40:00,
2013-03-27 12:45:00,57.8,39.8,29.90,NW,310,5.1,8.2,51,0.00,,,0.00,ow4j130224,2013-03-27 19:45:00,
2013-03-27 12:50:00,57.6,40.2,29.90,West,264,3.1,9.0,52,0.00,,,0.00,ow4j130224,2013-03-27 19:50:00,
2013-03-27 12:55:00,57.4,40.5,29.90,WNW,302,3.3,9.0,53,0.00,,,0.00,ow4j130224,2013-03-27 19:55:00,
2013-03-27 13:00:00,57.0,40.3,29.90,North,358,3.7,5.7,53,0.00,,,0.00,ow4j130224,2013-03-27 20:00:00,
2013-03-27 13:05:00,56.6,40.2,29.90,WNW,300,6.2,9.0,54,0.00,,,0.00,ow4j130224,2013-03-27 20:05:00,
2013-03-27 13:10:00,55.3,39.1,29.90,WNW,291,6.6,10.6,54,0.00,,,0.00,ow4j130224,2013-03-27 20:10:00,
2013-03-27 13:15:00,54.6,38.8,29.90,NW,317,4.6,6.5,55,0.00,,,0.00,ow4j130224,2013-03-27 20:15:00,
2013-03-27 13:20:00,55.3,39.6,29.90,NNW,336,5.6,8.2,55,0.00,,,0.00,ow4j130224,2013-03-27 20:20:00,
2013-03-27 13:25:00,56.0,40.0,29.90,NNW,334,5.6,8.2,55,0.00,,,0.00,ow4j130224,2013-03-27 20:25:00,
2013-03-27 13:30:00,55.7,39.6,29.90,NW,316,5.2,8.2,55,0.00,,,0.00,ow4j130224,2013-03-27 20:30:00,
2013-03-27 13:35:00,55.8,39.6,29.90,WNW,302,6.6,10.6,54,0.00,,,0.00,ow4j130224,2013-03-27 20:35:00,
2013-03-27 13:40:00,54.6,38.7,29.90,WNW,298,5.9,9.3,55,0.00,,,0.00,ow4j130224,2013-03-27 20:40:00,
2013-03-27 13:45:00,52.5,37.1,29.90,WNW,297,6.7,9.8,56,0.00,,,0.00,ow4j130224,2013-03-27 20:45:00,
2013-03-27 13:50:00,52.5,37.4,29.90,WNW,292,7.9,11.6,56,0.00,,,0.00,ow4j130224,2013-03-27 20:50:00,
2013-03-27 13:55:00,54.0,39.2,29.90,WNW,301,4.4,8.2,57,0.00,,,0.00,ow4j130224,2013-03-27 20:55:00,
2013-03-27 14:00:00,54.9,39.9,29.90,WNW,288,3.6,7.4,57,0.00,,,0.00,ow4j130224,2013-03-27 21:00:00,
2013-03-27 14:05:00,55.7,40.0,29.90,West,262,5.0,8.3,55,0.00,,,0.00,ow4j130224,2013-03-27 21:05:00,
2013-03-27 14:10:00,56.6,40.4,29.90,WNW,295,5.1,8.2,54,0.00,,,0.00,ow4j130224,2013-03-27 21:10:00,
2013-03-27 14:15:00,57.3,40.8,29.90,NW,324,4.2,7.4,54,0.00,,,0.00,ow4j130224,2013-03-27 21:15:00,
2013-03-27 14:20:00,57.7,40.9,29.90,NW,309,6.8,10.6,53,0.00,,,0.00,ow4j130224,2013-03-27 21:20:00,
2013-03-27 14:25:00,58.0,41.2,29.90,NW,317,6.1,9.0,53,0.00,,,0.00,ow4j130224,2013-03-27 21:25:00,
2013-03-27 14:30:00,57.9,41.1,29.90,WNW,286,7.3,11.4,53,0.00,,,0.00,ow4j130224,2013-03-27 21:30:00,
2013-03-27 14:35:00,57.7,40.7,29.90,WNW,288,3.8,8.2,53,0.00,,,0.00,ow4j130224,2013-03-27 21:35:00,
2013-03-27 14:40:00,57.8,40.9,29.90,NW,315,6.6,12.3,53,0.00,,,0.00,ow4j130224,2013-03-27 21:40:00,
2013-03-27 14:45:00,58.0,41.2,29.90,NW,304,7.3,9.8,53,0.00,,,0.00,ow4j130224,2013-03-27 21:45:00,
2013-03-27 14:50:00,58.0,40.9,29.90,NW,307,4.5,8.2,53,0.00,,,0.00,ow4j130224,2013-03-27 21:50:00,
2013-03-27 14:55:00,57.7,40.5,29.90,NW,313,4.3,6.5,53,0.00,,,0.00,ow4j130224,2013-03-27 21:55:00,
2013-03-27 15:00:00,57.5,40.3,29.90,NNW,339,5.7,9.0,52,0.00,,,0.00,ow4j130224,2013-03-27 22:00:00,
2013-03-27 15:05:00,57.5,40.3,29.90,North,356,5.3,8.2,53,0.00,,,0.00,ow4j130224,2013-03-27 22:05:00,
2013-03-27 15:10:00,57.3,40.2,29.90,NNW,343,4.7,7.6,53,0.00,,,0.00,ow4j130224,2013-03-27 22:10:00,
2013-03-27 15:15:00,57.3,40.2,29.90,NNW,331,4.3,8.2,53,0.00,,,0.00,ow4j130224,2013-03-27 22:15:00,
2013-03-27 15:20:00,57.1,39.6,29.90,WNW,301,5.5,9.0,52,0.00,,,0.00,ow4j130224,2013-03-27 22:20:00,
2013-03-27 15:25:00,56.7,39.0,29.90,North,350,3.5,4.9,51,0.00,,,0.00,ow4j130224,2013-03-27 22:25:00,
2013-03-27 15:30:00,57.1,39.0,29.90,NW,305,4.9,9.0,51,0.00,,,0.00,ow4j130224,2013-03-27 22:30:00,
2013-03-27 15:35:00,57.7,39.2,29.89,NW,317,3.9,6.5,50,0.00,,,0.00,ow4j130224,2013-03-27 22:35:00,
2013-03-27 15:40:00,57.8,39.0,29.90,NNW,340,5.9,7.4,49,0.00,,,0.00,ow4j130224,2013-03-27 22:40:00,
2013-03-27 15:45:00,57.6,38.7,29.90,NW,308,4.7,9.8,49,0.00,,,0.00,ow4j130224,2013-03-27 22:45:00,
2013-03-27 15:50:00,57.2,38.5,29.90,NW,325,4.4,6.5,49,0.00,,,0.00,ow4j130224,2013-03-27 22:50:00,
2013-03-27 15:55:00,57.1,38.4,29.90,NW,310,5.6,8.2,50,0.00,,,0.00,ow4j130224,2013-03-27 22:55:00,
2013-03-27 16:00:00,57.0,38.1,29.90,West,274,5.3,8.2,49,0.00,,,0.00,ow4j130224,2013-03-27 23:00:00,
2013-03-27 16:05:00,56.5,37.9,29.90,West,280,5.5,9.0,50,0.00,,,0.00,ow4j130224,2013-03-27 23:05:00,
2013-03-27 16:10:00,56.1,37.7,29.90,NW,305,6.6,9.8,50,0.00,,,0.00,ow4j130224,2013-03-27 23:10:00,
2013-03-27 16:15:00,55.4,37.3,29.90,WNW,300,7.6,10.6,50,0.00,,,0.00,ow4j130224,2013-03-27 23:15:00,
2013-03-27 16:20:00,53.6,35.8,29.90,West,277,6.6,9.6,51,0.00,,,0.00,ow4j130224,2013-03-27 23:20:00,
2013-03-27 16:25:00,52.2,34.7,29.90,WNW,292,3.7,6.5,51,0.00,,,0.00,ow4j130224,2013-03-27 23:25:00,
2013-03-27 16:30:00,51.9,34.3,29.90,WNW,288,2.3,4.1,51,0.00,,,0.00,ow4j130224,2013-03-27 23:30:00,
2013-03-27 16:35:00,53.3,35.8,29.90,West,270,5.5,9.4,51,0.00,,,0.00,ow4j130224,2013-03-27 23:35:00,
2013-03-27 16:40:00,54.8,37.3,29.90,WSW,244,4.6,7.4,52,0.00,,,0.00,ow4j130224,2013-03-27 23:40:00,
2013-03-27 16:45:00,55.0,37.4,29.90,WSW,254,7.4,12.3,51,0.00,,,0.00,ow4j130224,2013-03-27 23:45:00,
2013-03-27 16:51:00,53.3,35.8,29.90,WSW,248,4.7,7.4,51,0.00,,,0.00,ow4j130224,2013-03-27 23:51:00,
2013-03-27 16:56:00,53.1,35.6,29.90,SW,234,3.3,6.5,51,0.00,,,0.00,ow4j130224,2013-03-27 23:56:00,
2013-03-27 17:01:00,54.9,37.3,29.90,WSW,244,7.5,11.0,51,0.00,,,0.00,ow4j130224,2013-03-28 00:01:00,
2013-03-27 17:06:00,53.8,36.2,29.90,WSW,242,4.0,7.4,51,0.00,,,0.00,ow4j130224,2013-03-28 00:06:00,
2013-03-27 17:11:00,53.2,35.5,29.91,SW,226,4.9,6.5,51,0.00,,,0.00,ow4j130224,2013-03-28 00:11:00,
2013-03-27 17:16:00,55.0,37.1,29.91,SW,226,7.6,13.1,51,0.00,,,0.00,ow4j130224,2013-03-28 00:16:00,
2013-03-27 17:21:00,56.0,37.8,29.91,SW,229,8.4,13.9,50,0.00,,,0.00,ow4j130224,2013-03-28 00:21:00,
2013-03-27 17:26:00,55.2,36.8,29.91,WSW,242,6.1,9.0,50,0.00,,,0.00,ow4j130224,2013-03-28 00:26:00,
2013-03-27 17:31:00,54.4,36.5,29.91,SW,218,5.1,8.2,51,0.00,,,0.00,ow4j130224,2013-03-28 00:31:00,
2013-03-27 17:36:00,55.4,38.7,29.91,SSW,210,3.3,7.4,53,0.00,,,0.00,ow4j130224,2013-03-28 00:36:00,
2013-03-27 17:41:00,56.2,40.9,29.91,SSW,195,6.4,10.6,56,0.00,,,0.00,ow4j130224,2013-03-28 00:41:00,
2013-03-27 17:47:00,54.9,40.8,29.91,South,183,2.1,5.7,59,0.00,,,0.00,ow4j130224,2013-03-28 00:47:00,
2013-03-27 17:52:00,54.5,40.9,29.91,SW,221,5.7,9.0,60,0.00,,,0.00,ow4j130224,2013-03-28 00:52:00,
2013-03-27 17:57:00,54.2,41.1,29.91,SW,224,4.1,6.5,61,0.00,,,0.00,ow4j130224,2013-03-28 00:57:00,
2013-03-27 18:02:00,53.5,40.8,29.91,SW,214,4.4,6.6,62,0.00,,,0.00,ow4j130224,2013-03-28 01:02:00,
2013-03-27 18:07:00,52.7,40.3,29.91,SW,223,4.2,9.1,62,0.00,,,0.00,ow4j130224,2013-03-28 01:07:00,
2013-03-27 18:12:00,52.2,39.9,29.91,SSW,213,2.8,5.7,63,0.00,,,0.00,ow4j130224,2013-03-28 01:12:00,
2013-03-27 18:17:00,52.2,39.8,29.91,SSW,204,2.6,5.7,62,0.00,,,0.00,ow4j130224,2013-03-28 01:17:00,
2013-03-27 18:22:00,52.2,39.5,29.91,SSW,200,3.4,5.8,62,0.00,,,0.00,ow4j130224,2013-03-28 01:22:00,
2013-03-27 18:27:00,52.0,38.9,29.91,SSW,203,1.5,4.9,61,0.00,,,0.00,ow4j130224,2013-03-28 01:27:00,
2013-03-27 18:32:00,51.3,37.6,29.92,SW,215,1.7,5.7,59,0.00,,,0.00,ow4j130224,2013-03-28 01:32:00,
2013-03-27 18:37:00,50.2,36.3,29.92,SW,216,2.6,5.7,59,0.00,,,0.00,ow4j130224,2013-03-28 01:37:00,
2013-03-27 18:42:00,49.2,35.4,29.92,South,183,1.6,4.2,59,0.00,,,0.00,ow4j130224,2013-03-28 01:42:00,
2013-03-27 18:47:00,49.1,35.4,29.92,North,-999,0.6,3.3,59,0.00,,,0.00,ow4j130224,2013-03-28 01:47:00,
2013-03-27 18:52:00,49.0,35.3,29.92,SSW,210,2.8,4.9,59,0.00,,,0.00,ow4j130224,2013-03-28 01:52:00,
2013-03-27 18:57:00,49.5,35.9,29.92,SW,224,5.5,8.6,59,0.00,,,0.00,ow4j130224,2013-03-28 01:57:00,
2013-03-27 19:02:00,51.2,37.8,29.92,SW,228,5.8,7.4,60,0.00,,,0.00,ow4j130224,2013-03-28 02:02:00,
2013-03-27 19:07:00,52.5,39.5,29.92,SW,231,4.0,5.7,61,0.00,,,0.00,ow4j130224,2013-03-28 02:07:00,
2013-03-27 19:12:00,52.3,39.4,29.92,SW,233,1.9,4.1,61,0.00,,,0.00,ow4j130224,2013-03-28 02:12:00,
2013-03-27 19:17:00,52.5,39.7,29.92,WSW,251,1.7,4.1,62,0.00,,,0.00,ow4j130224,2013-03-28 02:17:00,
2013-03-27 19:22:00,52.6,39.7,29.92,WSW,251,2.9,4.9,61,0.00,,,0.00,ow4j130224,2013-03-28 02:22:00,
2013-03-27 19:27:00,52.7,39.8,29.93,North,-999,0.3,2.5,61,0.00,,,0.00,ow4j130224,2013-03-28 02:27:00,
2013-03-27 19:32:00,52.5,39.7,29.93,North,-999,0.0,0.0,62,0.00,,,0.00,ow4j130224,2013-03-28 02:32:00,
2013-03-27 19:37:00,52.4,39.7,29.93,North,-999,0.3,1.6,62,0.00,,,0.00,ow4j130224,2013-03-28 02:37:00,
2013-03-27 19:42:00,52.4,39.7,29.93,North,-999,0.5,2.5,62,0.00,,,0.00,ow4j130224,2013-03-28 02:42:00,
2013-03-27 19:47:00,52.4,39.7,29.93,WSW,248,1.5,3.3,62,0.00,,,0.00,ow4j130224,2013-03-28 02:47:00,
2013-03-27 19:53:00,52.5,39.8,29.92,North,-999,0.0,0.0,62,0.00,,,0.00,ow4j130224,2013-03-28 02:53:00,
2013-03-27 19:58:00,52.5,39.7,29.92,North,-999,0.0,0.0,62,0.00,,,0.00,ow4j130224,2013-03-28 02:58:00,
2013-03-27 20:03:00,52.2,39.6,29.93,North,-999,0.0,0.0,62,0.00,,,0.00,ow4j130224,2013-03-28 03:03:00,
2013-03-27 20:08:00,51.5,39.2,29.92,North,-999,0.0,0.0,62,0.00,,,0.00,ow4j130224,2013-03-28 03:08:00,
2013-03-27 20:13:00,50.8,38.6,29.92,North,-999,0.0,0.0,63,0.00,,,0.00,ow4j130224,2013-03-28 03:13:00,
2013-03-27 20:18:00,50.3,38.2,29.92,North,-999,0.0,0.0,63,0.00,,,0.00,ow4j130224,2013-03-28 03:18:00,
2013-03-27 20:23:00,50.1,38.1,29.92,North,-999,0.0,0.0,63,0.00,,,0.00,ow4j130224,2013-03-28 03:23:00,
2013-03-27 20:28:00,50.0,38.1,29.93,North,-999,0.0,0.0,63,0.00,,,0.00,ow4j130224,2013-03-28 03:28:00,
2013-03-27 20:33:00,49.8,38.2,29.93,North,-999,0.0,0.0,64,0.00,,,0.00,ow4j130224,2013-03-28 03:33:00,
2013-03-27 20:38:00,49.6,38.3,29.93,North,-999,0.0,0.0,65,0.00,,,0.00,ow4j130224,2013-03-28 03:38:00,
2013-03-27 20:43:00,49.4,38.1,29.93,North,-999,0.0,0.0,65,0.00,,,0.00,ow4j130224,2013-03-28 03:43:00,
2013-03-27 20:48:00,49.3,38.1,29.93,North,-999,0.0,0.0,65,0.00,,,0.00,ow4j130224,2013-03-28 03:48:00,
2013-03-27 20:53:00,49.2,38.5,29.93,North,-999,0.0,0.0,66,0.00,,,0.00,ow4j130224,2013-03-28 03:53:00,
2013-03-27 20:58:00,49.0,38.5,29.93,North,-999,0.0,0.0,67,0.00,,,0.00,ow4j130224,2013-03-28 03:58:00,
2013-03-27 21:00:00,49.0,38.5,29.93,North,-999,0.0,0.0,67,0.00,,,0.00,ow4j130224,2013-03-28 04:00:00,
2013-03-27 21:05:00,48.8,38.6,29.93,North,-999,0.0,0.0,68,0.00,,,0.00,ow4j130224,2013-03-28 04:05:00,
2013-03-27 21:10:00,48.6,38.6,29.93,North,-999,0.0,0.0,68,0.00,,,0.00,ow4j130224,2013-03-28 04:10:00,
2013-03-27 21:15:00,48.4,38.6,29.93,North,-999,0.0,0.0,68,0.00,,,0.00,ow4j130224,2013-03-28 04:15:00,
2013-03-27 21:21:00,48.5,38.7,29.93,North,-999,0.0,0.0,69,0.00,,,0.00,ow4j130224,2013-03-28 04:21:00,
2013-03-27 21:26:00,48.5,38.6,29.94,North,-999,0.0,0.0,68,0.00,,,0.00,ow4j130224,2013-03-28 04:26:00,
2013-03-27 21:31:00,48.4,38.4,29.94,North,-999,0.0,0.0,68,0.00,,,0.00,ow4j130224,2013-03-28 04:31:00,
2013-03-27 21:36:00,48.5,38.3,29.94,North,-999,0.0,0.0,68,0.00,,,0.00,ow4j130224,2013-03-28 04:36:00,
2013-03-27 21:41:00,48.5,38.4,29.94,North,-999,0.0,0.0,68,0.00,,,0.00,ow4j130224,2013-03-28 04:41:00,
2013-03-27 21:46:00,48.5,38.5,29.94,North,-999,0.0,0.0,68,0.00,,,0.00,ow4j130224,2013-03-28 04:46:00,
2013-03-27 21:51:00,48.3,38.4,29.94,North,-999,0.0,0.0,68,0.00,,,0.00,ow4j130224,2013-03-28 04:51:00,
2013-03-27 21:56:00,48.1,38.4,29.94,North,-999,0.0,0.0,69,0.00,,,0.00,ow4j130224,2013-03-28 04:56:00,
2013-03-27 22:01:00,47.8,38.4,29.94,North,-999,0.0,0.0,70,0.00,,,0.00,ow4j130224,2013-03-28 05:01:00,
2013-03-27 22:06:00,47.7,38.4,29.94,North,-999,0.0,0.0,70,0.00,,,0.00,ow4j130224,2013-03-28 05:06:00,
2013-03-27 22:11:00,47.7,38.4,29.94,North,-999,0.0,0.0,70,0.00,,,0.00,ow4j130224,2013-03-28 05:11:00,
2013-03-27 22:16:00,47.5,38.4,29.94,North,-999,0.0,0.0,70,0.00,,,0.00,ow4j130224,2013-03-28 05:16:00,
2013-03-27 22:21:00,47.5,38.4,29.94,North,-999,0.0,0.0,71,0.00,,,0.00,ow4j130224,2013-03-28 05:21:00,
2013-03-27 22:26:00,47.6,38.5,29.94,North,-999,0.0,0.0,71,0.00,,,0.00,ow4j130224,2013-03-28 05:26:00,
2013-03-27 22:31:00,47.6,38.5,29.94,North,-999,0.0,0.0,71,0.00,,,0.00,ow4j130224,2013-03-28 05:31:00,
2013-03-27 22:36:00,47.6,38.6,29.94,North,-999,0.0,0.0,71,0.00,,,0.00,ow4j130224,2013-03-28 05:36:00,
2013-03-27 22:41:00,47.8,38.7,29.94,North,-999,0.0,0.0,71,0.00,,,0.00,ow4j130224,2013-03-28 05:41:00,
2013-03-27 22:46:00,47.7,38.7,29.94,North,-999,0.0,0.0,71,0.00,,,0.00,ow4j130224,2013-03-28 05:46:00,
2013-03-27 22:52:00,47.7,38.5,29.94,North,-999,0.0,0.0,70,0.00,,,0.00,ow4j130224,2013-03-28 05:52:00,
2013-03-27 22:56:00,47.7,38.4,29.94,North,-999,0.0,0.0,70,0.00,,,0.00,ow4j130224,2013-03-28 05:56:00,
2013-03-27 23:02:00,47.9,38.4,29.94,North,-999,0.0,0.0,69,0.00,,,0.00,ow4j130224,2013-03-28 06:02:00,
2013-03-27 23:07:00,48.1,38.5,29.94,North,-999,0.0,0.0,69,0.00,,,0.00,ow4j130224,2013-03-28 06:07:00,
2013-03-27 23:12:00,47.8,38.3,29.95,North,-999,0.0,0.0,69,0.00,,,0.00,ow4j130224,2013-03-28 06:12:00,
2013-03-27 23:17:00,47.6,38.3,29.94,North,-999,0.0,0.0,70,0.00,,,0.00,ow4j130224,2013-03-28 06:17:00,
2013-03-27 23:22:00,47.3,38.3,29.94,North,-999,0.0,0.0,71,0.00,,,0.00,ow4j130224,2013-03-28 06:22:00,
2013-03-27 23:27:00,47.2,38.3,29.95,North,-999,0.0,0.0,71,0.00,,,0.00,ow4j130224,2013-03-28 06:27:00,
2013-03-27 23:32:00,47.3,38.4,29.95,North,-999,0.0,0.0,71,0.00,,,0.00,ow4j130224,2013-03-28 06:32:00,
2013-03-27 23:37:00,47.4,38.7,29.95,North,-999,0.0,0.0,72,0.00,,,0.00,ow4j130224,2013-03-28 06:37:00,
2013-03-27 23:42:00,47.4,38.8,29.95,North,-999,0.0,0.0,72,0.00,,,0.00,ow4j130224,2013-03-28 06:42:00,
2013-03-27 23:47:00,47.4,38.8,29.95,North,-999,0.0,0.0,72,0.00,,,0.00,ow4j130224,2013-03-28 06:47:00,
2013-03-27 23:52:00,47.3,38.8,29.95,North,-999,0.0,0.0,72,0.00,,,0.00,ow4j130224,2013-03-28 06:52:00,
2013-03-27 23:57:00,47.3,38.8,29.95,North,-999,0.0,0.0,72,0.00,,,0.00,ow4j130224,2013-03-28 06:57:00,